Wind_Speed
15 15 14 14 15 16 15 15 16 17 18 18 18 19 20 20 20 21 22 23 23 23 23 23 24 24 23 23 23 23 23 22 22 21 21 20 20 20 21 21 23 23 23 23
15 15 15 15 15 15 16 16 16 17 17 18 18 19 20 20 21 22 22 22 22 23 23 23 22 22 22 22 21 21 21 20 20 19 19 18 18 19 19 19 19 20 20 21
13 13 13 14 13 13 14 15 16 16 16 17 18 19 19 20 21 22 22 22 22 22 21 21 20 20 19 20 19 19 18 18 17 16 15 15 15 15 16 17 17 17 17 18
11 12 13 12 12 13 13 14 14 15 15 16 17 18 18 19 20 21 21 21 21 21 20 19 18 18 18 18 17 17 16 16 15 14 13 13 12 12 12 13 13 14 14 15
10 11 13 13 12 12 12 13 13 14 15 16 17 17 18 19 20 20 20 20 20 19 18 17 16 16 16 15 15 14 14 13 12 12 11 10 10 10 9 10 10 11 11 12
10 10 12 13 13 12 11 13 13 14 15 15 16 17 18 18 19 19 19 19 19 17 16 16 15 14 13 12 12 12 11 11 10 9 9 8 8 8 8 7 7 7 7 8
10 11 13 13 12 11 11 12 13 14 14 15 16 16 17 18 19 19 18 18 17 16 15 14 13 11 10 10 10 9 9 8 8 7 7 6 6 5 5 5 5 5 6 6
9 11 12 11 11 11 11 12 13 13 14 14 15 16 17 17 18 18 17 15 14 13 12 10 10 8 8 8 8 7 7 6 6 5 5 4 4 3 3 3 3 4 3 3
9 9 10 9 10 10 11 11 12 12 13 14 15 16 16 16 17 16 14 13 12 11 9 8 7 6 6 5 5 5 5 5 4 2 1 1 1 1 1 1 1 1 1 1
7 8 8 9 9 10 10 11 11 12 13 14 15 15 15 14 14 13 12 10 9 8 7 6 5 4 4 4 4 5 4 4 3 3 3 3 4 4 3 3 4 4 4 3
6 6 7 8 9 9 10 10 11 11 12 13 13 13 13 12 11 11 9 8 7 6 6 5 4 4 4 4 5 5 5 6 6 6 7 7 7 7 7 6 6 6 6 6
6 6 6 7 8 8 9 9 10 10 11 11 12 11 10 10 9 9 8 6 6 6 6 5 5 5 6 6 6 7 8 9 9 9 9 9 9 9 8 8 8 8 8 8
5 6 6 6 7 7 8 8 8 9 9 9 9 9 8 8 7 7 7 6 6 7 7 7 7 8 8 9 9 10 11 11 11 11 11 11 11 11 11 11 11 10 10 10
5 5 5 5 5 6 6 7 7 8 8 8 7 7 6 6 6 7 7 7 7 8 8 8 8 9 10 10 11 11 12 12 12 12 12 12 13 13 12 12 12 11 11 10
5 4 4 4 4 5 5 6 6 6 7 7 6 5 4 4 5 6 7 7 7 8 8 9 10 10 10 11 12 12 12 13 13 13 13 14 14 13 13 13 13 12 12 11
5 4 4 3 3 3 4 5 5 5 5 5 4 4 3 4 5 6 6 7 8 8 9 9 10 11 11 12 12 13 13 14 14 14 15 15 15 14 14 14 14 13 13 13
5 5 4 3 3 3 3 4 4 4 4 4 4 4 4 5 5 6 7 8 8 8 9 10 11 12 12 13 14 14 15 15 15 15 16 16 16 16 16 16 15 15 15 14
6 5 4 3 3 2 3 3 3 2 2 3 4 4 5 6 6 7 7 8 8 9 11 11 12 13 13 14 14 14 15 15 16 16 16 16 16 16 16 16 16 15 15 15
7 6 5 4 4 3 2 2 1 1 1 2 3 4 5 6 7 7 8 9 9 10 11 11 12 13 13 13 14 14 15 15 15 15 15 15 16 16 16 16 15 15 15 15
9 8 7 6 5 5 3 2 1 1 0 1 3 4 5 5 6 7 8 8 9 9 10 11 11 12 12 13 13 14 14 15 15 15 15 14 14 15 15 15 15 14 14 14
11 10 9 8 7 6 5 4 2 2 2 2 3 3 4 5 6 7 7 8 9 10 10 11 11 12 12 13 13 13 14 14 14 14 14 14 14 14 14 14 14 14 14 14
12 11 11 10 9 8 7 6 4 3 3 3 3 3 4 5 6 6 7 8 9 10 10 11 12 12 12 12 13 13 13 13 13 13 13 13 13 13 13 13 13 13 13 13
14 13 12 12 11 10 9 8 7 5 5 5 5 5 5 5 6 7 7 8 9 10 11 11 11 11 11 12 12 12 12 12 12 12 12 12 12 11 11 11 11 11 11 11
17 16 15 14 13 12 11 10 9 8 7 6 6 7 7 7 7 7 8 8 9 10 10 10 10 10 10 10 10 10 10 10 10 10 10 10 10 10 10 10 10 10 10 10
19 18 17 17 16 15 14 13 11 10 9 9 9 9 8 8 8 7 8 8 8 8 9 9 8 8 8 8 8 8 8 8 8 8 8 8 8 8 8 8 9 9 9 9
21 20 19 19 19 18 17 16 14 13 12 11 11 11 10 9 9 9 8 8 8 8 8 8 8 7 7 7 7 7 6 6 6 6 7 7 6 6 6 6 7 7 8 8
23 23 22 21 22 21 20 19 17 16 15 14 14 13 12 11 11 10 10 9 8 8 8 7 7 7 7 6 6 6 5 5 5 5 5 5 5 5 5 5 6 6 7 8
Wind_Direction
246 250 252 258 262 265 266 266 271 277 280 283 287 290 293 294 295 297 298 298 296 295 297 296 295 296 296 296 295 294 293 291 287 281 278 276 273 271 270 267 263 262 261 261
254 255 256 262 264 266 267 267 272 277 280 284 289 293 295 296 299 301 302 301 298 298 297 296 297 297 297 297 296 296 294 291 289 284 278 276 275 273 270 266 264 263 262 262
256 257 261 264 264 266 268 270 273 279 284 288 291 295 297 300 301 303 305 305 303 301 299 299 299 299 299 298 297 297 295 294 291 290 285 281 278 275 270 266 266 264 264 261
255 257 260 265 266 268 270 274 277 281 287 293 296 299 301 303 304 305 306 305 305 303 301 301 300 301 300 299 298 298 298 295 294 294 289 284 281 278 275 271 269 268 264 258
255 259 261 264 268 271 274 277 281 286 291 294 298 301 304 306 308 309 309 307 307 306 305 303 302 301 301 301 302 302 301 298 293 293 289 287 284 280 276 271 269 265 257 254
253 258 261 261 267 272 276 279 283 289 293 297 301 303 305 308 312 314 313 312 313 311 308 308 307 306 305 306 307 306 303 301 298 297 295 289 282 280 275 274 272 263 258 255
254 257 261 264 269 272 275 280 287 292 297 300 302 304 308 311 314 315 316 315 315 314 311 310 310 309 310 312 314 313 308 305 301 299 296 286 273 270 271 268 263 261 258 256
257 258 260 264 269 272 277 283 288 293 298 302 305 308 311 313 315 317 318 318 318 317 315 314 312 312 317 319 322 324 323 321 313 303 294 284 271 273 271 260 262 261 264 264
260 262 260 260 268 277 283 288 292 294 301 307 311 314 316 317 320 322 323 323 325 325 322 321 322 323 327 329 331 333 337 342 343 344 328 330 5 48 88 124 130 118 97 70
267 263 258 260 271 278 285 291 295 299 305 311 316 319 322 324 325 328 330 332 336 338 336 338 343 348 356 357 354 356 1 11 30 52 72 83 85 90 91 95 104 97 88 90
267 267 263 265 272 279 291 296 298 304 310 315 320 322 325 330 335 340 343 344 352 0 6 12 17 28 33 31 34 40 48 61 69 78 84 85 86 87 88 91 95 95 91 90
262 269 266 266 271 285 297 302 307 311 313 318 325 328 334 341 349 354 359 9 19 25 29 38 49 56 55 59 63 67 70 73 77 80 82 84 87 89 90 92 92 94 94 90
267 267 267 265 274 289 303 313 316 317 321 327 331 337 345 352 0 9 20 32 39 40 46 57 67 67 68 72 76 79 79 79 79 79 82 85 89 92 92 92 91 90 89 87
267 270 266 266 276 292 309 316 317 322 330 337 340 347 358 8 22 34 41 46 51 55 59 65 69 72 76 80 84 86 84 83 82 82 83 86 87 87 89 89 89 89 87 84
269 264 264 267 271 292 312 318 322 331 337 341 348 358 15 35 44 47 50 55 60 65 69 72 77 82 85 87 88 88 87 87 86 85 85 86 86 87 87 88 89 88 86 83
258 262 261 256 264 291 308 318 326 338 352 0 13 28 50 58 59 58 61 64 70 75 78 82 85 88 89 90 90 90 91 90 88 87 87 88 88 88 88 88 87 86 85 83
247 249 245 246 257 279 303 317 326 340 359 18 34 53 70 77 75 73 74 75 79 83 87 89 90 91 91 91 92 91 91 90 89 88 88 88 88 89 88 86 85 85 83 81
236 234 239 243 245 263 289 312 322 340 9 37 53 68 79 86 87 85 85 87 88 90 92 94 95 94 93 93 93 93 93 91 90 89 89 88 88 88 87 86 84 83 82 81
228 228 231 231 233 240 255 283 306 337 21 52 73 84 90 93 93 92 91 92 94 94 95 98 98 97 96 95 95 95 95 94 93 91 90 90 88 87 86 85 83 81 80 79
227 226 227 227 228 230 239 245 237 230 126 99 105 106 103 102 101 100 98 97 98 100 102 103 102 101 100 100 99 98 97 96 95 93 91 89 88 87 86 85 83 81 79 77
227 227 225 226 225 224 226 228 228 207 169 143 131 125 119 116 113 111 108 106 105 105 106 107 106 106 105 104 103 101 100 98 96 94 92 90 89 88 86 83 81 78 77 75
226 225 224 224 223 220 219 219 218 205 183 165 151 140 134 127 122 120 118 117 117 114 112 111 110 109 108 107 105 104 102 100 98 95 92 90 88 87 85 82 78 75 73 70
225 224 222 221 220 218 215 212 210 205 194 184 175 162 151 145 137 132 128 126 124 121 119 117 116 114 111 109 107 106 104 101 98 96 93 90 87 84 81 77 74 71 68 65
224 223 221 219 218 216 213 212 211 209 204 196 189 179 169 160 153 147 140 136 133 131 128 126 123 120 117 115 112 109 106 102 98 94 91 88 85 82 78 75 71 68 64 60
225 224 222 220 219 217 216 217 216 213 210 206 198 190 183 175 169 164 158 152 147 143 141 139 135 131 128 125 121 117 112 107 101 95 89 85 82 80 77 72 67 60 54 48
226 224 222 221 220 219 218 219 219 216 213 209 205 201 196 190 184 179 173 168 164 160 157 153 150 148 145 141 135 129 122 115 105 97 91 85 80 76 69 62 54 46 40 34
226 225 223 222 221 221 220 220 220 218 214 211 209 207 205 202 198 194 189 184 181 178 176 172 168 164 160 155 150 143 136 128 118 106 95 83 73 65 55 46 37 29 23 18
Height
5788 5788 5789 5789 5790 5790 5790 5790 5789 5789 5787 5785 5783 5781 5779 5776 5774 5771 5768 5765 5762 5759 5757 5754 5752 5749 5747 5745 5742 5740 5738 5736 5735 5733 5732 5732 5731 5731 5730 5730 5730 5731 5731 5732
5784 5784 5785 5785 5786 5785 5785 5785 5784 5783 5782 5779 5778 5776 5774 5771 5769 5766 5763 5760 5756 5753 5751 5748 5746 5743 5741 5739 5736 5734 5732 5730 5729 5727 5726 5726 5725 5725 5724 5724 5724 5724 5725 5725
5780 5781 5781 5782 5782 5781 5781 5780 5780 5779 5778 5775 5773 5771 5769 5766 5764 5760 5757 5754 5751 5748 5745 5743 5740 5738 5736 5733 5731 5729 5727 5725 5724 5722 5721 5720 5720 5719 5719 5719 5719 5719 5719 5720
5777 5778 5778 5780 5778 5777 5777 5776 5775 5774 5773 5771 5769 5767 5764 5762 5759 5755 5752 5749 5746 5743 5740 5737 5735 5733 5731 5729 5726 5724 5723 5721 5719 5718 5717 5716 5715 5715 5715 5715 5715 5715 5715 5716
5773 5774 5774 5775 5774 5773 5773 5772 5771 5770 5769 5767 5764 5762 5760 5757 5754 5751 5747 5744 5741 5738 5735 5733 5730 5728 5726 5724 5722 5721 5719 5717 5715 5714 5713 5712 5712 5712 5711 5711 5711 5711 5712 5712
5770 5771 5771 5772 5770 5770 5771 5769 5767 5766 5764 5762 5760 5758 5756 5752 5749 5746 5742 5739 5736 5733 5731 5729 5727 5724 5723 5721 5719 5717 5716 5714 5712 5711 5710 5709 5709 5709 5709 5709 5708 5709 5709 5709
5766 5767 5767 5767 5767 5767 5768 5766 5764 5762 5760 5758 5756 5754 5752 5748 5745 5742 5738 5735 5732 5730 5727 5725 5723 5721 5720 5718 5716 5715 5713 5711 5710 5709 5708 5707 5707 5707 5706 5706 5706 5706 5707 5707
5763 5764 5766 5764 5763 5764 5763 5761 5760 5758 5757 5755 5752 5750 5747 5744 5741 5738 5735 5732 5729 5726 5724 5723 5721 5719 5718 5716 5714 5713 5711 5709 5708 5707 5706 5706 5705 5705 5705 5705 5705 5705 5705 5705
5761 5762 5761 5760 5760 5760 5759 5758 5756 5755 5753 5751 5749 5746 5744 5741 5738 5735 5732 5729 5726 5724 5722 5720 5719 5717 5716 5715 5713 5712 5710 5709 5707 5706 5705 5705 5705 5704 5704 5705 5705 5705 5705 5705
5758 5758 5758 5758 5757 5757 5756 5755 5753 5752 5750 5749 5746 5743 5741 5738 5735 5732 5729 5727 5725 5723 5721 5719 5718 5717 5715 5714 5713 5711 5710 5709 5707 5706 5706 5705 5705 5705 5705 5705 5705 5705 5706 5706
5756 5756 5755 5755 5755 5754 5753 5752 5751 5749 5748 5746 5743 5741 5738 5736 5733 5730 5728 5726 5724 5722 5720 5719 5717 5716 5715 5714 5713 5712 5711 5709 5708 5708 5707 5706 5706 5706 5706 5706 5706 5707 5707 5707
5754 5754 5753 5753 5752 5752 5751 5750 5749 5747 5746 5744 5741 5739 5737 5734 5732 5730 5727 5725 5724 5722 5721 5719 5718 5717 5716 5715 5714 5713 5712 5711 5710 5709 5709 5708 5708 5708 5708 5708 5708 5709 5709 5709
5752 5752 5751 5751 5750 5750 5749 5748 5747 5746 5744 5742 5740 5738 5736 5734 5732 5730 5728 5726 5725 5724 5722 5721 5720 5719 5718 5717 5716 5715 5715 5714 5713 5712 5712 5711 5711 5711 5711 5711 5711 5711 5711 5711
5750 5750 5750 5750 5749 5749 5748 5747 5746 5744 5743 5741 5739 5737 5735 5734 5732 5731 5729 5728 5727 5725 5724 5723 5722 5721 5720 5720 5719 5718 5718 5717 5716 5715 5715 5714 5714 5714 5713 5714 5714 5714 5714 5714
5749 5749 5749 5748 5748 5748 5747 5746 5745 5744 5742 5740 5738 5737 5735 5734 5733 5732 5731 5730 5729 5728 5727 5726 5725 5724 5723 5723 5722 5722 5721 5720 5720 5719 5718 5718 5717 5717 5717 5717 5717 5717 5716 5716
5747 5747 5747 5747 5747 5747 5747 5746 5745 5743 5742 5740 5739 5737 5736 5736 5735 5734 5733 5732 5731 5730 5729 5728 5728 5727 5727 5726 5726 5725 5725 5724 5723 5723 5722 5722 5721 5721 5721 5721 5720 5720 5720 5719
5746 5746 5747 5747 5747 5747 5746 5745 5744 5743 5742 5741 5740 5739 5738 5737 5736 5736 5735 5734 5734 5733 5732 5731 5731 5731 5730 5730 5729 5729 5728 5728 5728 5727 5727 5726 5726 5725 5725 5725 5724 5724 5723 5723
5744 5745 5745 5746 5746 5746 5746 5745 5744 5744 5743 5742 5741 5740 5740 5739 5738 5738 5737 5737 5736 5736 5735 5735 5734 5734 5734 5734 5733 5733 5733 5732 5732 5732 5731 5731 5731 5730 5730 5729 5729 5728 5727 5727
5743 5743 5744 5745 5745 5745 5745 5745 5745 5744 5744 5743 5743 5742 5742 5741 5741 5740 5740 5739 5739 5739 5738 5738 5738 5737 5737 5737 5737 5737 5737 5737 5736 5736 5736 5736 5735 5735 5734 5733 5733 5732 5732 5731
5741 5742 5743 5743 5744 5745 5745 5745 5745 5745 5744 5744 5744 5744 5744 5743 5743 5743 5743 5742 5742 5742 5741 5741 5741 5741 5741 5741 5741 5741 5741 5741 5741 5741 5740 5740 5739 5739 5738 5738 5737 5736 5736 5735
5739 5740 5741 5742 5743 5744 5744 5745 5745 5745 5745 5745 5745 5745 5745 5745 5745 5745 5745 5745 5745 5744 5744 5744 5744 5744 5745 5745 5745 5745 5745 5745 5745 5744 5744 5744 5743 5743 5742 5742 5741 5740 5739 5738
5736 5737 5739 5740 5741 5742 5743 5744 5745 5745 5745 5746 5746 5747 5747 5747 5747 5747 5747 5747 5747 5747 5747 5747 5747 5748 5748 5748 5748 5748 5748 5748 5748 5748 5748 5747 5747 5746 5746 5745 5744 5743 5743 5742
5733 5735 5736 5738 5739 5741 5742 5743 5744 5745 5746 5746 5747 5748 5748 5749 5749 5749 5749 5750 5750 5750 5750 5751 5751 5751 5752 5752 5752 5752 5752 5752 5752 5752 5751 5751 5750 5750 5749 5748 5747 5747 5746 5745
5729 5732 5734 5735 5737 5739 5741 5742 5743 5745 5746 5746 5747 5748 5749 5750 5750 5751 5751 5752 5752 5752 5753 5754 5754 5754 5754 5755 5755 5755 5755 5755 5755 5754 5754 5753 5753 5752 5752 5751 5750 5749 5748 5747
5726 5728 5730 5732 5734 5736 5738 5740 5742 5743 5745 5746 5747 5748 5749 5750 5751 5752 5753 5753 5754 5754 5755 5756 5756 5756 5756 5757 5757 5757 5757 5757 5757 5757 5756 5756 5755 5755 5754 5753 5752 5751 5750 5749
5721 5723 5726 5728 5731 5733 5736 5738 5740 5742 5743 5745 5746 5748 5749 5750 5751 5752 5753 5754 5755 5755 5756 5757 5757 5757 5758 5758 5759 5759 5759 5759 5759 5758 5758 5757 5757 5756 5756 5755 5754 5753 5751 5750
5716 5718 5721 5724 5727 5729 5732 5735 5737 5739 5741 5743 5745 5747 5748 5750 5751 5752 5753 5754 5755 5756 5756 5757 5758 5758 5759 5759 5759 5760 5760 5760 5760 5759 5759 5759 5758 5757 5756 5755 5754 5753 5752 5751